Temperature
18 18 18 18 18 19 21 23 24 24 24 23 23 23 22 20 20 17 16 16 16 16 16 16 16 15 15 15 15 15 15 15 15 14 14 14 14 14 14 14 14 14 14 14 14 14 14 14 14
18 18 18 19 19 20 21 23 23 23 22 22 22 22 22 20 18 17 16 16 15 15 16 16 15 15 15 15 15 15 15 15 15 14 14 14 14 14 14 14 14 14 14 14 14 14 14 14 14
17 18 18 19 20 20 22 23 22 22 22 22 22 21 20 19 17 16 16 16 15 15 15 15 15 15 15 15 14 14 14 15 15 14 14 14 14 14 14 14 14 14 14 14 14 14 14 14 14
17 18 19 19 20 21 22 22 22 22 22 21 21 20 18 17 17 16 16 15 15 15 15 15 15 15 15 14 14 14 14 14 14 14 14 14 14 14 14 14 13 13 13 13 13 13 13 13 14
17 18 18 19 20 22 22 22 22 22 22 22 21 20 17 16 16 16 16 15 15 14 14 15 15 14 14 14 14 14 14 14 14 14 14 14 14 14 14 13 13 13 13 13 13 13 13 13 13
17 19 18 19 20 22 22 22 22 22 22 21 21 19 16 16 16 16 15 15 14 14 14 14 14 14 14 14 14 14 14 14 14 14 14 14 14 14 13 13 13 13 13 13 13 13 13 13 13
17 17 18 20 20 21 21 21 21 21 20 20 20 19 16 15 15 15 15 15 14 14 14 14 14 14 14 14 14 14 14 14 14 14 14 13 13 13 13 13 13 13 13 13 13 13 13 13 13
16 17 19 19 20 20 21 20 20 20 19 19 19 18 16 15 15 15 14 14 14 14 13 13 13 14 13 13 13 13 13 13 13 13 13 13 13 13 13 13 13 13 13 13 13 13 13 13 13
16 16 17 19 19 19 20 20 19 18 18 18 17 17 16 15 14 14 14 14 14 13 13 13 13 13 13 13 13 13 13 13 13 13 13 13 13 13 13 13 12 12 12 12 12 12 12 12 12
16 15 17 18 18 18 18 18 18 18 17 17 17 16 15 15 14 14 13 13 13 13 13 13 13 13 12 12 12 13 13 13 13 12 12 12 12 12 12 12 12 12 12 12 12 12 12 12 12
16 16 17 17 17 17 17 17 17 17 16 17 16 15 14 14 13 13 13 13 13 13 12 12 12 12 12 12 12 12 12 12 12 12 12 12 12 12 12 12 11 11 11 11 11 12 12 11 11
16 16 16 16 15 16 16 16 16 16 16 16 16 15 14 14 13 13 13 13 12 12 12 12 12 12 12 12 12 12 12 12 12 12 12 12 12 12 11 11 11 11 11 11 11 11 11 11 11
15 15 15 15 14 15 15 15 15 15 15 15 15 14 14 14 13 13 13 12 12 12 12 12 12 12 12 12 12 12 11 11 11 11 11 11 11 11 11 11 11 10 10 11 11 11 10 10 11
15 14 14 14 14 14 14 14 14 14 15 14 14 14 13 13 13 13 12 12 12 12 12 11 11 11 11 11 11 11 11 11 11 11 11 11 11 11 11 11 10 10 10 10 10 10 10 10 10
14 13 13 14 14 14 13 13 13 14 14 14 14 13 13 13 12 12 12 12 11 11 11 11 11 11 11 11 11 11 11 11 11 11 10 10 10 10 10 10 10 10 10 10 10 10 10 10 10
14 13 13 14 14 13 13 12 14 15 14 14 14 13 13 12 12 12 12 11 11 11 11 11 11 11 11 11 11 11 10 10 10 10 10 10 10 10 10 10 10 10 10 10 10 9 9 9 9
13 12 13 13 13 13 12 12 14 14 14 14 13 13 12 12 11 11 11 11 11 11 11 11 11 11 11 10 10 10 10 10 10 10 10 10 10 10 9 9 9 9 9 9 9 9 9 9 9
12 13 13 13 13 13 12 12 13 14 13 13 13 13 12 12 11 11 11 10 10 10 10 10 10 10 10 10 10 10 9 9 9 9 9 9 9 9 9 9 9 9 9 9 8 8 8 8 8
13 13 13 13 13 12 11 12 12 13 13 13 13 12 12 11 11 10 10 10 10 10 10 10 10 10 10 10 9 9 9 9 9 9 9 9 8 9 8 8 8 8 8 8 8 8 8 8 8
12 12 12 12 12 12 11 11 12 12 12 12 12 12 12 11 10 10 9 9 9 9 9 9 9 9 9 9 9 8 8 8 8 8 8 8 8 8 8 8 8 8 8 7 7 7 7 7 7
11 11 11 11 11 11 11 10 12 13 13 13 12 12 11 11 10 9 9 9 9 9 9 9 9 9 8 8 8 8 8 8 8 8 8 7 7 7 7 7 7 7 7 7 7 7 6 6 6
10 11 11 10 9 9 10 8 11 12 12 11 12 11 11 10 9 9 8 8 8 8 8 8 8 8 8 8 8 7 7 7 7 7 7 7 7 7 7 7 7 7 7 6 6 6 6 6 6
10 10 10 10 9 8 9 8 9 12 11 11 11 11 10 10 9 8 8 8 8 8 8 8 8 8 7 7 7 7 7 7 7 7 6 6 6 6 6 6 6 6 6 6 6 6 5 5 5
9 9 9 9 8 7 8 8 9 10 11 11 11 11 10 9 8 8 7 7 7 7 7 7 7 7 7 7 6 6 6 6 6 6 6 6 6 5 5 5 6 6 6 6 5 5 5 5 5
8 8 7 7 7 7 9 9 9 11 11 11 10 10 9 9 8 7 7 7 6 6 6 6 6 6 6 6 6 6 6 6 5 5 5 5 5 5 5 5 5 5 5 5 5 5 5 5 4
8 8 7 7 8 8 9 8 9 11 11 11 10 10 9 8 7 6 6 6 6 6 6 6 6 6 5 5 5 5 5 5 5 5 5 5 5 5 5 4 4 4 4 4 4 4 4 4 4
8 7 8 7 7 7 8 9 10 10 9 9 9 9 8 7 7 6 5 5 5 5 5 5 5 5 5 5 5 5 5 4 4 4 4 4 4 4 4 4 4 4 4 4 4 4 4 4 3
7 7 6 6 6 7 9 9 8 9 8 8 8 8 7 7 6 5 5 5 4 4 5 5 5 5 4 4 4 4 4 4 4 4 4 4 4 4 3 3 3 3 3 3 3 3 3 3 3
6 6 6 6 6 6 7 8 9 8 8 8 7 8 7 6 6 5 5 4 4 4 4 4 4 4 4 4 4 4 3 3 3 3 3 3 3 3 3 3 3 3 3 3 3 3 3 2 2
6 6 5 5 5 6 6 6 9 8 8 7 7 7 6 6 5 5 4 4 4 4 4 4 4 3 3 3 3 3 3 3 3 3 3 2 3 3 3 2 2 2 2 2 2 2 2 2 2
Wind_Speed
14 13 7 3 3 5 7 4 1 2 2 5 6 5 5 6 5 7 4 5 7 9 11 11 10 9 8 8 8 8 8 8 7 7 7 7 8 8 8 9 9 9 9 9 10 10 11 11 10
11 9 4 3 4 6 6 4 2 3 5 4 3 2 3 6 7 7 4 5 7 10 11 11 10 9 8 8 8 8 8 8 7 7 7 6 7 7 7 8 8 9 9 9 9 10 10 10 9
10 8 4 4 5 6 3 3 6 6 5 3 3 3 3 4 6 5 5 5 7 9 12 12 10 9 8 8 7 7 7 7 7 7 7 6 6 6 7 7 7 8 8 8 9 9 9 8 8
5 3 4 6 9 7 4 2 6 5 4 2 2 4 4 6 5 6 6 5 8 8 11 11 10 9 8 8 7 7 7 6 6 5 6 6 6 6 6 6 7 7 7 7 8 8 8 7 7
4 4 6 7 9 6 1 2 2 2 4 4 2 2 5 5 9 8 6 6 7 7 10 11 9 8 8 8 7 7 7 6 5 5 5 5 5 5 5 5 6 6 6 6 7 7 6 6 5
4 4 6 8 8 5 2 2 1 2 2 3 3 2 5 7 8 6 5 6 6 7 9 10 9 8 8 8 7 6 6 5 5 5 5 4 4 4 4 4 5 5 5 5 5 5 5 5 4
4 4 7 8 6 5 3 3 1 1 1 1 1 3 6 6 7 6 5 5 6 6 7 7 7 7 8 8 7 6 5 5 5 4 4 4 3 4 3 3 4 4 4 4 4 4 4 4 4
3 4 7 7 7 4 2 2 1 3 1 3 3 2 5 7 7 5 5 5 6 5 5 5 5 5 6 6 7 6 5 4 4 4 4 3 2 3 3 3 3 4 3 3 3 3 3 2 2
3 4 6 5 4 1 3 1 2 3 2 1 2 3 6 9 7 5 4 4 5 4 3 4 4 5 5 5 5 6 5 4 3 4 3 3 2 2 3 3 3 4 3 3 2 2 2 1 1
3 4 4 3 4 3 2 2 1 1 1 2 2 5 8 7 6 5 4 4 4 3 3 3 3 4 4 4 4 4 4 3 2 2 3 2 1 2 3 3 3 4 4 3 2 3 2 2 2
3 4 3 4 6 4 2 1 1 2 3 3 2 5 7 6 5 4 4 4 3 3 3 3 3 4 4 3 3 2 2 3 2 1 2 2 2 3 3 2 2 2 3 2 2 3 3 3 2
4 4 4 2 4 3 2 1 2 4 2 2 2 5 5 5 5 5 4 3 3 3 3 2 3 3 3 2 2 2 2 2 2 2 2 2 2 2 2 1 1 1 1 1 2 2 2 2 2
6 4 2 1 2 3 3 3 4 4 2 1 2 4 3 4 4 3 3 3 3 3 3 2 2 3 3 2 2 2 1 1 2 2 1 2 1 1 1 1 0 0 1 1 1 2 2 1 2
2 2 3 3 3 3 3 5 4 5 3 3 3 4 4 3 4 3 3 3 2 3 3 3 2 2 2 2 1 2 2 1 2 2 2 1 2 1 1 1 0 0 1 2 2 1 1 1 1
2 3 5 6 5 2 2 6 7 6 4 4 5 4 4 3 3 3 3 3 2 2 3 3 3 3 2 2 1 1 1 2 2 2 2 2 2 1 1 1 1 1 1 2 2 1 1 1 2
5 5 5 5 5 4 4 7 4 4 5 5 5 4 4 3 3 3 3 3 3 2 2 2 2 3 2 2 1 1 2 2 2 2 2 2 2 1 1 1 1 1 1 1 1 1 1 1 2
6 6 6 4 5 4 5 6 3 3 5 5 5 4 4 3 3 2 3 3 3 2 2 2 2 2 2 2 1 1 2 2 3 3 3 3 2 1 1 0 0 1 1 1 1 1 0 1 2
4 5 5 5 4 4 6 8 5 4 5 5 4 4 4 4 3 2 3 3 3 3 2 2 2 2 2 2 1 1 2 2 3 2 2 3 3 3 2 1 1 2 1 1 1 1 1 1 1
6 6 6 4 2 4 8 9 8 5 5 5 5 5 4 4 3 3 2 3 3 3 2 1 2 2 2 1 1 1 1 1 1 2 3 2 2 3 2 1 0 1 1 1 1 0 1 1 1
7 8 7 3 1 3 7 9 8 6 7 6 6 4 4 4 3 3 3 3 2 3 3 2 2 2 2 1 1 1 1 1 1 2 2 1 1 1 1 0 1 0 0 1 0 0 0 1 1
7 6 6 4 3 5 5 7 7 5 6 5 4 4 4 4 4 4 3 2 2 3 2 2 2 2 2 2 2 1 1 1 1 1 0 1 1 0 0 1 0 1 1 1 1 1 1 1 2
6 3 4 4 3 4 3 5 4 5 6 7 6 5 4 4 4 4 3 3 3 2 1 2 3 3 2 2 2 2 2 1 1 1 1 1 1 1 1 1 0 1 1 1 1 0 1 1 2
2 2 3 4 4 4 5 5 5 5 5 6 5 5 4 4 3 3 3 3 3 2 2 1 2 2 2 2 2 2 2 1 1 1 1 1 0 1 1 1 1 0 1 1 1 1 1 2 2
2 2 2 2 1 5 7 7 5 3 4 4 4 4 4 4 4 3 3 3 3 2 2 1 2 2 2 2 2 2 2 1 1 1 1 1 1 0 1 1 1 1 1 1 2 2 2 2 2
2 1 0 1 3 6 5 5 5 2 2 2 4 4 4 4 4 3 3 3 2 2 1 1 2 2 2 2 2 2 2 2 2 2 2 1 1 0 0 1 0 1 1 1 1 2 2 3 3
4 4 3 3 4 3 2 5 3 2 4 4 4 4 4 4 4 3 2 2 1 1 1 1 1 1 2 2 1 1 1 1 1 1 1 1 1 1 1 1 1 1 1 2 2 1 2 2 3
3 4 1 1 3 3 5 3 2 3 3 3 3 3 3 3 4 3 2 2 1 1 1 1 1 1 1 2 1 1 1 1 1 1 1 1 1 1 0 1 1 1 1 2 2 2 2 2 3
2 1 2 3 3 4 5 4 3 3 2 3 3 3 3 3 3 3 2 1 1 0 0 1 1 2 1 1 1 1 1 1 1 1 1 1 1 1 1 1 1 1 1 2 2 2 2 2 2
4 3 3 3 3 3 3 2 1 3 2 2 3 3 3 3 3 2 1 1 1 1 1 0 1 1 1 1 1 0 0 1 1 0 0 1 1 1 1 1 1 1 2 2 2 2 2 2 3
2 3 4 3 4 3 3 4 2 5 4 5 4 4 3 3 3 2 2 2 1 1 1 1 0 0 1 1 1 1 1 0 0 0 1 0 1 1 1 1 1 2 2 2 2 2 2 2 2
Wind_Direction
301 276 255 258 247 235 242 239 202 113 70 46 33 17 36 33 38 102 134 89 100 115 121 124 123 122 119 117 112 110 107 102 98 97 95 90 90 87 84 84 83 80 76 75 76 75 75 73 71
293 282 263 240 242 240 231 201 156 74 85 78 62 7 57 71 78 102 105 96 107 113 118 117 121 120 116 116 113 112 110 105 101 97 96 96 96 91 88 86 83 80 78 76 76 76 74 73 71
276 265 252 235 237 248 255 122 112 100 105 128 105 36 31 69 88 102 102 111 105 105 111 114 117 118 116 114 113 115 114 110 107 102 98 98 98 96 94 90 87 84 82 79 78 77 76 74 71
277 242 243 244 246 252 274 78 99 123 129 122 115 99 83 53 71 93 105 109 104 106 109 113 113 113 114 115 113 114 114 111 111 108 103 98 98 99 99 96 94 90 86 82 81 80 78 75 72
247 251 236 239 244 253 276 81 89 162 156 158 148 108 93 78 87 98 109 104 105 105 107 115 114 113 115 115 112 110 112 111 111 106 101 101 103 98 100 106 103 96 92 90 85 79 77 74 68
254 244 241 236 235 230 204 120 165 245 161 139 138 136 106 109 99 106 107 102 102 101 102 118 119 115 114 116 113 111 110 109 108 108 105 102 103 106 102 112 118 108 100 97 91 83 76 72 62
265 258 255 259 249 234 195 126 208 245 179 116 116 120 121 115 108 116 110 104 97 98 106 117 125 124 117 117 118 114 112 112 107 106 104 103 109 116 109 112 129 116 108 102 100 93 81 73 62
290 280 255 253 253 245 133 117 55 6 27 39 20 100 122 121 118 122 114 101 93 92 104 109 119 124 122 121 124 123 117 117 117 115 112 117 120 139 136 119 121 125 121 120 117 114 102 78 52
277 258 252 260 274 291 91 124 97 40 31 31 43 53 103 116 121 115 109 104 100 98 100 106 103 103 116 124 126 127 123 119 124 126 128 138 151 162 159 145 134 141 139 145 156 158 156 168 239
228 244 255 323 349 12 53 60 64 148 194 231 128 106 115 121 132 142 145 136 123 114 98 89 98 95 101 113 117 125 131 129 127 122 142 147 133 110 115 130 138 156 156 162 187 207 216 231 226
221 244 287 351 6 10 4 29 317 229 235 237 168 132 128 134 147 162 165 152 134 116 101 94 95 90 89 89 108 106 117 122 127 98 111 104 88 87 94 111 123 163 162 170 194 217 231 240 229
242 262 293 338 353 341 307 293 265 262 272 339 80 118 138 162 172 176 169 150 131 117 115 111 103 102 92 75 74 80 85 96 93 85 81 89 79 80 82 93 141 177 193 191 218 249 258 257 265
236 255 290 321 312 296 293 271 264 259 270 317 91 128 171 178 172 161 148 142 143 141 133 126 120 115 106 89 59 51 45 76 99 103 88 93 98 126 104 90 152 299 314 278 264 278 286 289 295
279 267 266 261 247 258 264 265 255 245 205 189 181 175 188 192 164 149 149 159 154 135 131 128 119 112 101 105 92 65 46 67 80 89 87 88 95 89 116 161 148 287 319 299 281 289 292 289 296
269 262 249 226 217 204 260 264 233 217 201 202 207 196 177 174 151 148 152 146 146 137 134 132 131 109 110 113 97 69 60 73 65 72 85 71 65 72 111 184 207 258 319 317 290 287 303 295 301
223 233 238 200 191 180 209 258 240 172 179 214 214 202 187 180 165 157 137 124 119 118 115 121 119 117 122 123 111 73 56 56 58 61 70 60 51 39 78 183 237 343 342 332 272 227 259 284 298
212 232 236 206 189 190 217 253 241 180 192 220 217 207 190 181 178 155 133 125 126 121 121 128 121 118 121 112 90 78 69 56 59 59 55 39 34 30 60 99 10 12 356 315 284 353 255 280 296
238 243 250 229 186 209 233 248 244 224 215 221 216 207 191 188 183 139 125 123 121 120 124 134 127 120 117 109 102 80 71 56 51 54 54 40 35 37 42 58 28 22 343 292 253 278 306 277 285
285 280 272 258 194 231 243 253 256 235 224 226 219 210 197 183 156 138 132 127 128 131 130 133 126 126 116 115 131 126 120 92 71 54 51 46 37 37 32 42 57 44 295 271 239 248 315 317 322
265 271 275 284 307 267 261 264 258 228 219 220 217 212 199 172 159 148 143 140 151 146 141 137 129 139 142 137 147 154 152 160 134 62 48 36 32 27 14 12 164 117 244 268 241 70 262 291 322
247 255 273 288 311 265 275 276 236 209 202 212 204 202 206 185 174 167 165 158 148 134 139 150 155 140 131 135 132 106 81 71 76 76 102 19 10 9 82 24 162 163 204 211 223 206 215 250 284
247 263 278 281 288 268 237 277 248 205 200 209 204 197 201 183 173 173 168 157 144 132 125 147 150 137 142 142 153 166 166 187 215 183 175 90 32 20 43 27 352 180 205 207 224 217 232 222 248
261 307 276 259 256 280 236 239 269 206 219 210 192 176 171 165 166 166 158 149 137 129 125 145 133 140 152 151 161 162 169 189 173 139 142 138 93 15 10 2 28 12 223 201 213 233 247 237 234
256 260 250 243 236 258 223 210 269 218 209 192 172 160 158 155 147 128 116 122 126 128 124 127 140 149 142 150 155 160 176 170 172 187 184 179 174 171 344 13 27 354 297 218 218 217 235 242 246
218 171 127 223 220 241 196 202 242 220 116 140 148 142 136 131 127 119 113 122 130 133 139 143 155 153 141 144 155 176 188 178 197 204 202 195 189 203 249 337 339 311 315 308 268 228 234 237 239
215 207 185 218 239 268 199 220 230 111 100 97 103 113 122 128 132 133 130 119 121 126 132 165 176 162 150 159 182 196 178 179 211 209 210 214 202 209 231 304 310 307 317 312 294 256 244 246 240
206 223 258 283 284 273 242 222 220 131 107 112 116 117 130 134 125 126 132 134 146 162 173 186 175 165 159 164 175 185 175 189 214 202 188 202 205 206 269 282 276 287 302 297 284 262 258 251 245
273 268 149 187 227 256 245 228 219 165 177 163 156 154 130 115 105 102 103 91 72 89 105 168 163 169 168 171 188 205 204 225 226 192 180 191 196 196 222 237 250 264 285 278 280 279 268 264 260
187 211 219 224 237 231 260 255 78 134 125 123 133 122 110 111 115 117 117 109 77 33 44 96 165 158 159 164 164 167 239 243 228 217 227 217 218 214 227 236 247 263 268 266 267 275 283 270 273
209 206 189 195 244 235 256 265 25 89 86 83 89 88 81 97 111 112 110 108 74 43 22 5 213 155 160 159 160 192 219 249 220 272 274 244 225 229 226 229 246 262 273 278 267 267 274 268 270
Height
1493 1494 1495 1497 1499 1499 1493 1483 1477 1479 1481 1485 1486 1487 1489 1494 1498 1508 1508 1506 1506 1507 1508 1509 1510 1512 1513 1515 1516 1518 1519 1519 1520 1521 1522 1523 1523 1524 1524 1525 1525 1525 1525 1526 1526 1526 1527 1527 1527
1492 1494 1497 1497 1498 1500 1491 1480 1479 1481 1484 1487 1489 1490 1491 1496 1500 1503 1505 1506 1506 1507 1508 1509 1510 1512 1513 1515 1516 1518 1519 1519 1520 1521 1522 1523 1524 1524 1525 1525 1525 1526 1526 1526 1527 1527 1527 1527 1528
1492 1494 1496 1494 1493 1493 1485 1478 1479 1483 1485 1487 1490 1492 1494 1499 1501 1503 1504 1505 1507 1507 1508 1509 1510 1512 1513 1515 1516 1517 1518 1519 1520 1521 1522 1523 1524 1524 1525 1525 1526 1526 1526 1526 1527 1527 1527 1528 1528
1493 1495 1495 1493 1490 1483 1479 1478 1479 1482 1486 1488 1490 1494 1497 1500 1501 1502 1504 1505 1506 1507 1507 1509 1510 1512 1513 1514 1516 1517 1518 1519 1520 1521 1522 1523 1523 1524 1525 1525 1525 1526 1526 1527 1527 1527 1527 1528 1528
1494 1494 1493 1492 1486 1480 1477 1478 1481 1482 1485 1488 1490 1493 1498 1500 1501 1502 1503 1505 1506 1507 1507 1508 1510 1511 1512 1514 1515 1516 1517 1518 1519 1520 1521 1522 1523 1524 1524 1525 1525 1526 1526 1526 1527 1527 1527 1528 1528
1494 1491 1493 1491 1483 1478 1478 1479 1481 1483 1485 1487 1490 1493 1499 1500 1500 1502 1503 1505 1506 1506 1507 1508 1509 1510 1512 1513 1514 1515 1517 1518 1519 1519 1520 1521 1522 1523 1524 1524 1525 1525 1526 1526 1526 1527 1527 1527 1528
1493 1490 1489 1484 1482 1479 1478 1480 1483 1484 1486 1488 1490 1493 1497 1499 1500 1501 1503 1504 1505 1506 1506 1508 1509 1510 1511 1512 1513 1514 1515 1517 1518 1519 1519 1520 1521 1522 1523 1523 1524 1524 1524 1525 1526 1526 1526 1527 1527
1490 1490 1485 1482 1481 1480 1478 1481 1483 1486 1487 1490 1491 1493 1496 1498 1499 1501 1502 1504 1505 1506 1506 1507 1508 1509 1510 1511 1512 1513 1514 1515 1516 1517 1518 1519 1520 1521 1521 1522 1522 1523 1523 1524 1525 1525 1526 1526 1526
1490 1492 1487 1482 1480 1480 1480 1482 1485 1487 1488 1490 1492 1493 1495 1496 1498 1500 1501 1503 1504 1505 1506 1506 1507 1508 1509 1510 1511 1512 1513 1514 1515 1516 1517 1518 1518 1519 1520 1521 1522 1522 1523 1523 1524 1524 1525 1525 1525
1489 1490 1485 1482 1481 1481 1482 1483 1486 1488 1489 1490 1492 1493 1494 1495 1497 1499 1500 1501 1503 1504 1504 1505 1506 1506 1507 1508 1509 1510 1511 1512 1513 1514 1515 1516 1517 1518 1519 1519 1520 1521 1521 1522 1522 1523 1523 1523 1524
1486 1486 1483 1483 1483 1483 1484 1485 1487 1488 1489 1490 1491 1492 1493 1495 1496 1498 1499 1500 1501 1502 1503 1504 1505 1505 1506 1507 1508 1508 1509 1510 1511 1512 1513 1514 1515 1516 1517 1517 1518 1519 1520 1520 1521 1521 1522 1522 1522
1485 1484 1484 1484 1485 1485 1486 1486 1488 1488 1489 1489 1490 1491 1492 1494 1495 1497 1498 1499 1500 1501 1502 1503 1503 1504 1504 1505 1506 1507 1507 1508 1509 1510 1511 1512 1513 1514 1515 1515 1516 1517 1517 1518 1518 1519 1520 1520 1520
1484 1484 1484 1485 1486 1486 1487 1487 1488 1487 1487 1488 1489 1490 1491 1493 1494 1496 1497 1497 1499 1499 1500 1501 1502 1503 1503 1504 1505 1505 1506 1507 1507 1508 1509 1510 1510 1511 1512 1513 1513 1514 1515 1516 1516 1517 1517 1518 1518
1483 1484 1485 1485 1486 1486 1487 1487 1487 1484 1486 1487 1488 1489 1490 1491 1492 1493 1495 1496 1497 1498 1498 1500 1500 1501 1502 1502 1503 1504 1504 1505 1506 1506 1507 1507 1508 1509 1509 1510 1511 1512 1512 1513 1514 1514 1515 1515 1515
1484 1485 1484 1483 1484 1485 1487 1487 1483 1482 1484 1486 1487 1488 1489 1490 1491 1491 1493 1494 1495 1496 1497 1497 1498 1499 1500 1500 1501 1502 1502 1502 1503 1503 1504 1505 1505 1506 1507 1507 1508 1509 1509 1510 1511 1511 1512 1512 1512
1484 1485 1486 1480 1482 1484 1489 1487 1479 1480 1482 1484 1485 1486 1487 1488 1489 1490 1491 1492 1492 1493 1494 1495 1496 1497 1498 1498 1499 1499 1500 1500 1500 1501 1501 1502 1503 1503 1504 1504 1505 1506 1506 1507 1508 1507 1508 1508 1509
1483 1485 1482 1481 1480 1481 1485 1484 1479 1479 1480 1482 1483 1484 1485 1486 1487 1488 1489 1489 1490 1491 1492 1493 1494 1494 1495 1496 1497 1497 1497 1497 1498 1498 1499 1499 1500 1500 1501 1501 1502 1503 1503 1504 1504 1504 1505 1505 1505
1483 1481 1478 1479 1479 1481 1483 1481 1478 1478 1478 1479 1480 1481 1483 1484 1485 1486 1487 1487 1488 1489 1490 1491 1491 1492 1492 1493 1494 1495 1495 1495 1496 1496 1496 1496 1497 1497 1498 1498 1499 1500 1500 1500 1501 1501 1501 1502 1501
1478 1478 1479 1477 1477 1480 1480 1478 1476 1475 1476 1476 1477 1479 1480 1482 1483 1484 1485 1485 1486 1486 1487 1488 1489 1489 1489 1490 1491 1492 1492 1493 1493 1493 1494 1494 1494 1494 1495 1495 1496 1496 1497 1497 1497 1497 1498 1498 1498
1479 1480 1479 1477 1477 1478 1478 1476 1472 1470 1471 1472 1474 1475 1477 1479 1481 1481 1482 1483 1483 1484 1485 1485 1486 1486 1487 1487 1488 1489 1490 1490 1491 1491 1491 1491 1491 1491 1491 1491 1492 1493 1493 1493 1494 1494 1494 1495 1495
1479 1480 1480 1480 1479 1477 1479 1477 1468 1465 1467 1469 1471 1472 1475 1476 1478 1479 1480 1480 1481 1481 1482 1483 1483 1484 1484 1485 1486 1487 1487 1487 1488 1488 1488 1488 1488 1488 1488 1488 1489 1489 1490 1490 1490 1491 1491 1491 1492
1479 1478 1479 1481 1485 1485 1481 1487 1469 1465 1465 1466 1467 1469 1471 1473 1475 1476 1477 1477 1478 1479 1480 1480 1481 1481 1482 1482 1483 1483 1483 1484 1484 1484 1484 1484 1485 1485 1485 1485 1485 1486 1486 1487 1487 1487 1488 1489 1489
1479 1478 1479 1481 1484 1487 1482 1488 1475 1462 1464 1463 1464 1466 1468 1471 1473 1474 1474 1475 1475 1476 1477 1478 1478 1479 1479 1480 1480 1480 1481 1481 1481 1481 1481 1481 1482 1482 1482 1483 1482 1482 1483 1484 1484 1484 1485 1485 1485
1478 1479 1480 1482 1487 1493 1479 1483 1475 1464 1460 1460 1461 1464 1466 1468 1470 1472 1472 1473 1473 1474 1474 1475 1476 1476 1476 1477 1477 1478 1478 1478 1478 1478 1478 1478 1478 1479 1479 1479 1479 1479 1480 1480 1480 1480 1481 1482 1482
1480 1484 1490 1491 1492 1486 1470 1475 1471 1458 1457 1458 1460 1463 1465 1467 1468 1469 1470 1470 1471 1471 1472 1472 1473 1473 1474 1474 1474 1475 1475 1475 1475 1475 1475 1475 1475 1475 1475 1476 1476 1476 1476 1476 1477 1477 1477 1478 1478
1480 1480 1488 1491 1484 1475 1472 1473 1465 1456 1456 1457 1459 1462 1464 1466 1467 1468 1468 1469 1469 1469 1469 1470 1470 1471 1471 1471 1472 1473 1473 1472 1472 1472 1472 1472 1472 1472 1473 1473 1473 1473 1473 1473 1473 1473 1473 1473 1474
1478 1480 1478 1484 1483 1485 1473 1464 1459 1456 1457 1458 1460 1462 1463 1464 1466 1466 1467 1467 1467 1467 1467 1467 1468 1469 1469 1469 1470 1470 1470 1470 1470 1470 1470 1470 1469 1470 1470 1470 1470 1470 1470 1470 1470 1470 1469 1470 1470
1479 1478 1483 1487 1488 1482 1467 1462 1464 1459 1458 1458 1459 1461 1463 1464 1464 1465 1465 1465 1465 1465 1465 1465 1466 1466 1467 1467 1467 1467 1467 1468 1467 1467 1467 1467 1467 1467 1467 1467 1467 1467 1467 1467 1467 1466 1466 1466 1466
1480 1481 1481 1481 1481 1482 1476 1470 1456 1457 1456 1458 1459 1461 1462 1463 1463 1464 1464 1464 1464 1463 1463 1463 1463 1464 1464 1464 1464 1464 1465 1465 1465 1464 1464 1464 1464 1465 1465 1464 1464 1464 1464 1464 1463 1463 1463 1462 1462
1476 1477 1481 1487 1485 1479 1479 1474 1456 1456 1457 1458 1460 1461 1462 1462 1463 1463 1463 1463 1462 1462 1461 1461 1461 1461 1461 1462 1462 1461 1462 1462 1461 1461 1461 1462 1462 1462 1462 1461 1461 1461 1461 1461 1460 1460 1460 1459 1459